TimeCST,TemperatureF,Dew PointF,Humidity,Sea Level PressureIn,VisibilityMPH,Wind Direction,Wind SpeedMPH,Gust SpeedMPH,PrecipitationIn,Events,Conditions,WindDirDegrees,DateUTC
12:15 AM,59.0,44.6,59,30.17,10.0,SSE,12.7,16.1,N/A,,Overcast,160,2012-11-19 06:15:00
12:35 AM,59.0,44.6,59,30.17,10.0,SSE,11.5,-,N/A,,Overcast,160,2012-11-19 06:35:00
1:15 AM,59.0,44.6,59,30.16,10.0,South,10.4,-,N/A,,Overcast,170,2012-11-19 07:15:00
1:35 AM,59.0,44.6,59,30.16,10.0,SSE,9.2,-,N/A,,Overcast,160,2012-11-19 07:35:00
1:55 AM,59.0,44.6,59,30.16,10.0,SSE,8.1,-,N/A,,Overcast,160,2012-11-19 07:55:00
2:15 AM,59.0,44.6,59,30.16,10.0,South,9.2,-,N/A,,Overcast,170,2012-11-19 08:15:00
2:35 AM,59.0,44.6,59,30.17,10.0,South,8.1,-,N/A,,Overcast,170,2012-11-19 08:35:00
2:55 AM,59.0,44.6,59,30.17,10.0,South,11.5,-,N/A,,Overcast,170,2012-11-19 08:55:00
3:15 AM,59.0,44.6,59,30.17,10.0,South,12.7,-,N/A,,Overcast,170,2012-11-19 09:15:00
3:35 AM,59.0,46.4,63,30.16,10.0,South,11.5,-,N/A,,Overcast,170,2012-11-19 09:35:00
3:55 AM,57.2,44.6,63,30.14,10.0,South,17.3,23.0,N/A,,Mostly Cloudy,170,2012-11-19 09:55:00
4:15 AM,57.2,44.6,63,30.15,10.0,SSE,12.7,19.6,N/A,,Overcast,160,2012-11-19 10:15:00
4:55 AM,57.2,44.6,63,30.15,10.0,South,10.4,-,N/A,,Mostly Cloudy,170,2012-11-19 10:55:00
5:15 AM,57.2,44.6,63,30.15,10.0,SSE,12.7,-,N/A,,Overcast,160,2012-11-19 11:15:00
5:35 AM,57.2,44.6,63,30.14,10.0,South,13.8,-,N/A,,Overcast,170,2012-11-19 11:35:00
5:55 AM,55.4,44.6,67,30.14,10.0,South,12.7,19.6,N/A,,Mostly Cloudy,170,2012-11-19 11:55:00
6:15 AM,55.4,44.6,67,30.14,10.0,South,10.4,-,N/A,,Scattered Clouds,170,2012-11-19 12:15:00
6:35 AM,55.4,44.6,67,30.14,10.0,South,12.7,-,N/A,,Scattered Clouds,170,2012-11-19 12:35:00
6:55 AM,55.4,44.6,67,30.15,10.0,South,10.4,-,N/A,,Scattered Clouds,180,2012-11-19 12:55:00
7:15 AM,55.4,44.6,67,30.15,10.0,South,10.4,-,N/A,,Scattered Clouds,170,2012-11-19 13:15:00
7:35 AM,55.4,44.6,67,30.16,10.0,South,11.5,-,N/A,,Clear,180,2012-11-19 13:35:00
7:55 AM,55.4,44.6,67,30.16,10.0,South,12.7,-,N/A,,Scattered Clouds,180,2012-11-19 13:55:00
8:15 AM,59.0,44.6,59,30.17,10.0,South,11.5,-,N/A,,Scattered Clouds,180,2012-11-19 14:15:00
8:35 AM,59.0,44.6,59,30.16,10.0,South,10.4,-,N/A,,Scattered Clouds,180,2012-11-19 14:35:00
9:15 AM,60.8,46.4,59,30.16,10.0,South,15.0,-,N/A,,Clear,190,2012-11-19 15:15:00
9:35 AM,62.6,46.4,55,30.17,10.0,SSW,11.5,-,N/A,,Clear,200,2012-11-19 15:35:00
9:55 AM,64.4,50.0,59,30.16,10.0,South,11.5,18.4,N/A,,Clear,190,2012-11-19 15:55:00
10:15 AM,68.0,51.8,56,30.16,10.0,SSW,13.8,-,N/A,,Clear,200,2012-11-19 16:15:00
10:35 AM,68.0,51.8,56,30.16,10.0,SSW,13.8,19.6,N/A,,Clear,210,2012-11-19 16:35:00
10:55 AM,71.6,53.6,53,30.16,10.0,SSW,10.4,-,N/A,,Clear,200,2012-11-19 16:55:00
11:15 AM,71.6,55.4,57,30.16,10.0,SW,13.8,17.3,N/A,,Clear,220,2012-11-19 17:15:00
11:35 AM,71.6,55.4,57,30.16,10.0,SW,13.8,-,N/A,,Clear,220,2012-11-19 17:35:00
11:55 AM,71.6,55.4,57,30.15,10.0,SSW,13.8,19.6,N/A,,Clear,210,2012-11-19 17:55:00
12:15 PM,71.6,53.6,53,30.14,10.0,SSW,11.5,16.1,N/A,,Clear,200,2012-11-19 18:15:00
12:35 PM,71.6,53.6,53,30.13,10.0,SSW,10.4,-,N/A,,Clear,210,2012-11-19 18:35:00
12:55 PM,71.6,55.4,57,30.13,10.0,SSW,11.5,16.1,N/A,,Clear,210,2012-11-19 18:55:00
1:15 PM,73.4,55.4,53,30.12,10.0,SW,10.4,-,N/A,,Clear,220,2012-11-19 19:15:00
1:35 PM,73.4,55.4,53,30.12,10.0,South,11.5,-,N/A,,Clear,190,2012-11-19 19:35:00
1:55 PM,73.4,55.4,53,30.12,10.0,SSW,6.9,16.1,N/A,,Clear,200,2012-11-19 19:55:00
2:15 PM,73.4,55.4,53,30.12,10.0,SW,9.2,-,N/A,,Clear,220,2012-11-19 20:15:00
2:35 PM,73.4,55.4,53,30.12,10.0,SSW,6.9,-,N/A,,Clear,210,2012-11-19 20:35:00
2:55 PM,77.0,57.2,50,30.11,10.0,SW,6.9,-,N/A,,Clear,220,2012-11-19 20:55:00
3:15 PM,73.4,55.4,53,30.10,7.0,SSW,8.1,-,N/A,,Clear,200,2012-11-19 21:15:00
3:35 PM,73.4,57.2,57,30.11,10.0,SSW,6.9,-,N/A,,Clear,210,2012-11-19 21:35:00
3:55 PM,73.4,57.2,57,30.10,10.0,South,6.9,-,N/A,,Clear,170,2012-11-19 21:55:00
4:15 PM,73.4,57.2,57,30.11,10.0,SSE,9.2,-,N/A,,Clear,160,2012-11-19 22:15:00
4:35 PM,71.6,55.4,57,30.12,10.0,South,9.2,-,N/A,,Clear,180,2012-11-19 22:35:00
4:55 PM,71.6,55.4,57,30.12,10.0,South,4.6,-,N/A,,Clear,180,2012-11-19 22:55:00
5:15 PM,71.6,59.0,64,30.12,10.0,South,4.6,-,N/A,,Clear,170,2012-11-19 23:15:00
5:35 PM,69.8,57.2,64,30.12,10.0,SSE,4.6,-,N/A,,Clear,160,2012-11-19 23:35:00
5:55 PM,68.0,55.4,64,30.13,10.0,SE,4.6,-,N/A,,Clear,140,2012-11-19 23:55:00
6:15 PM,68.0,55.4,64,30.13,10.0,SE,4.6,-,N/A,,Clear,140,2012-11-20 00:15:00
6:35 PM,66.2,55.4,68,30.14,10.0,SE,3.5,-,N/A,,Clear,140,2012-11-20 00:35:00
6:55 PM,64.4,55.4,73,30.15,10.0,SSE,5.8,-,N/A,,Clear,150,2012-11-20 00:55:00
7:15 PM,62.6,55.4,77,30.15,10.0,SSE,8.1,-,N/A,,Clear,160,2012-11-20 01:15:00
7:35 PM,62.6,55.4,77,30.15,10.0,South,6.9,-,N/A,,Clear,170,2012-11-20 01:35:00
7:55 PM,62.6,55.4,77,30.16,10.0,South,5.8,-,N/A,,Clear,170,2012-11-20 01:55:00
8:15 PM,62.6,55.4,77,30.16,10.0,South,6.9,-,N/A,,Clear,170,2012-11-20 02:15:00
8:35 PM,62.6,55.4,77,30.16,10.0,South,5.8,-,N/A,,Clear,170,2012-11-20 02:35:00
8:55 PM,60.8,55.4,82,30.17,10.0,South,5.8,-,N/A,,Clear,180,2012-11-20 02:55:00
9:15 PM,60.8,57.2,88,30.16,10.0,South,8.1,-,N/A,,Clear,180,2012-11-20 03:15:00
9:35 PM,60.8,57.2,88,30.16,10.0,South,6.9,-,N/A,,Clear,190,2012-11-20 03:35:00
9:55 PM,60.8,59.0,94,30.16,10.0,South,6.9,-,N/A,,Clear,180,2012-11-20 03:55:00
10:15 PM,59.0,57.2,94,30.17,10.0,South,4.6,-,N/A,,Clear,170,2012-11-20 04:15:00
10:35 PM,59.0,55.4,88,30.17,10.0,South,5.8,-,N/A,,Clear,170,2012-11-20 04:35:00
10:55 PM,59.0,55.4,88,30.17,10.0,South,3.5,-,N/A,,Clear,170,2012-11-20 04:55:00
11:15 PM,59.0,55.4,88,30.16,10.0,Calm,Calm,-,N/A,,Clear,0,2012-11-20 05:15:00
11:35 PM,57.2,55.4,94,30.17,10.0,Calm,Calm,-,N/A,,Clear,0,2012-11-20 05:35:00
11:55 PM,55.4,53.6,94,30.16,10.0,Calm,Calm,-,N/A,,Clear,0,2012-11-20 05:55:00